Weather History for Bow Valley, AB

Change the Weather History Date:

Monday, October 15, 2012

  Actual Average Record
Temperature  
Mean Temperature 54 °F -  
Max Temperature 60 °F - - ()
Min Temperature 49 °F - - ()
Degree Days  
Heating Degree Days 10    
Growing Degree Days 4 (Base 50)    
Moisture  
Dew Point 32 °F    
Average Humidity 42    
Maximum Humidity 60    
Minimum Humidity 24    
Precipitation  
Precipitation 0.00 in - - ()
Sea Level Pressure  
Sea Level Pressure 29.59 in    
Wind  
Wind Speed 9 mph ()    
Max Wind Speed 15 mph    
Max Gust Speed 32 mph    
T = Trace of Precipitation, MM = Missing Value Source: Averaged Metar Reports

Daily Weather History Graph

Daily Weather History Graph

Search for Another Location

Airport:

Trip Planner

Search our weather history database for the weather conditions in past years. The results will help you decide how hot, cold, wet, or windy it might be!

Date:

Astronomy

Oct. 15, 2012 Rise Set
Actual Time 8:04 AM MDT 6:46 PM MDT
Civil Twilight 7:31 AM MDT 7:19 PM MDT
Nautical Twilight 6:52 AM MDT 7:57 PM MDT
Astronomical Twilight 6:14 AM MDT 8:36 PM MDT
Moon 8:27 AM MDT 6:38 PM MDT
Length of Visible Light 11h 48m
Length of Day
10h 41m
New Moon, 0% of the Moon is Illuminated
Oct 15
New Moon
Oct 21
First Quarter
Oct 29
Full
Nov 6
Last Quarter
Nov 13
New

Hourly Weather History & Observations

Time (MDT) Temp. Dew Point Humidity Pressure Visibility Wind Dir Wind Speed Gust Speed Precip Events Conditions
12:00 AM 56 °F 35 °F 32% 29.56 in - WSW 15.0 mph - -  
12:00 AM 55.9 °F 34.5 °F 45% 29.56 in - WSW 15.0 mph 32.2 mph N/A   Unknown
1:00 AM 55.2 °F 34.3 °F 45% 29.57 in - WSW 12.7 mph 28.8 mph N/A   Unknown
2:00 AM 54.5 °F 33.3 °F 45% 29.59 in - WSW 10.4 mph 19.6 mph N/A   Unknown
3:00 AM 54.5 °F 31.6 °F 42% 29.59 in - WSW 9.2 mph 17.3 mph N/A   Unknown
4:00 AM 53.6 °F 31.8 °F 44% 29.60 in - WSW 8.1 mph - N/A   Unknown
5:00 AM 52.7 °F 32.9 °F 47% 29.61 in - WSW 8.1 mph - N/A   Unknown
6:00 AM 52 °F 34 °F 38% 29.62 in - WSW 6.9 mph - -  
6:00 AM 52.0 °F 34.0 °F 50% 29.62 in - WSW 6.9 mph - N/A   Unknown
7:00 AM 51.1 °F 35.1 °F 54% 29.62 in - WSW 11.5 mph - N/A   Unknown
8:00 AM 49.8 °F 36.0 °F 59% 29.65 in - WSW 5.8 mph - N/A   Unknown
9:00 AM 49.8 °F 36.0 °F 59% 29.67 in - WSW 5.8 mph - N/A   Unknown
10:00 AM 50.4 °F 37.0 °F 60% 29.68 in - WSW 6.9 mph - N/A   Unknown
11:00 AM 53.2 °F 36.0 °F 52% 29.69 in - SW 6.9 mph - N/A   Unknown
12:00 PM 56 °F 35 °F 33% 29.66 in - WSW 9.2 mph - -  
12:00 PM 56.1 °F 35.2 °F 45% 29.66 in - WSW 9.2 mph 19.6 mph N/A   Unknown
1:00 PM 59.0 °F 32.9 °F 37% 29.65 in - WSW 8.1 mph 19.6 mph N/A   Unknown
2:00 PM 58.5 °F 29.8 °F 34% 29.64 in - West 11.5 mph 23.0 mph N/A   Unknown
3:00 PM 59.9 °F 28.2 °F 30% 29.61 in - WSW 6.9 mph 18.4 mph N/A   Unknown
4:00 PM 59.0 °F 27.3 °F 30% 29.62 in - WSW 9.2 mph 25.3 mph N/A   Unknown
5:00 PM 59.0 °F 28.0 °F 31% 29.60 in - WSW 5.8 mph - N/A   Unknown
6:00 PM 54 °F 28 °F 24% 29.60 in - WSW 6.9 mph - -  
6:00 PM 54.1 °F 28.0 °F 37% 29.60 in - WSW 6.9 mph 17.3 mph N/A   Unknown
7:00 PM 54.0 °F 27.0 °F 35% 29.56 in - WSW 9.2 mph 17.3 mph N/A   Unknown
8:00 PM 50.0 °F 29.1 °F 45% 29.52 in - SW 2.3 mph - N/A   Unknown
9:00 PM 53.6 °F 27.5 °F 37% 29.47 in - WSW 9.2 mph 18.4 mph N/A   Unknown
10:00 PM 54.0 °F 28.2 °F 37% 29.42 in - WSW 9.2 mph 23.0 mph N/A   Unknown
11:00 PM 54.1 °F 30.2 °F 40% 29.34 in - WSW 13.8 mph 29.9 mph N/A   Unknown